Tracking 31027 objects as of 19-Jul-2025
HD Live streaming from Space Station
objects crossing your sky now

OBJECT Q

Track OBJECT Q now!
10-day predictions


NORAD ID: 59065
Int'l Code: 2024-039Q
Perigee: 455.2 km
Apogee: 468.6 km
Inclination: 97.4 °
Period: 93.7 minutes
Semi major axis: 6832 km
RCS: Unknown
Launch date: February 29, 2024
Source: (TBD)
Launch site: VOSTOCHNY COSMODROME (VOSTO)

Note: This is a ROCKET BODY
Your satellite tracking list
ATLAS 2A CENTAUR R/B
Track 1 satellite(s)




NASA's NSSDC Master Catalog

Two Line Element Set (TLE):
1 59065U 24039Q   25199.90094931  .00007234  00000-0  20141-3 0  9991
2 59065  97.4414 168.3967 0009766 229.5758 130.4635 15.37078198 77300
Source of the keplerian elements: AFSPC